Time,TemperatureF,DewpointF,PressureIn,WindDirection,WindDirectionDegrees,WindSpeedMPH,WindSpeedGustMPH,Humidity,HourlyPrecipIn,Conditions,Clouds,dailyrainin,SoftwareType,DateUTC
2013-08-27 01:52:00,67.0,62.0,-100.00,West,265,1.0,1.0,85,-99.99,,,-99.99,,2013-08-27 08:52:00,
2013-08-27 02:01:00,67.0,62.0,-100.00,West,265,1.0,1.0,85,-99.99,,,-99.99,,2013-08-27 09:01:00,
2013-08-27 02:21:00,67.0,62.0,-100.00,SSW,210,1.0,1.0,85,-99.99,,,-99.99,,2013-08-27 09:21:00,
2013-08-27 02:43:00,66.0,62.0,-100.00,WSW,242,2.0,2.0,86,-99.99,,,-99.99,,2013-08-27 09:43:00,
2013-08-27 03:53:00,66.0,63.0,-100.00,SSW,206,1.0,3.0,90,-99.99,,,-99.99,,2013-08-27 10:53:00,
2013-08-27 04:03:00,66.0,63.0,-100.00,SSW,206,1.0,3.0,90,-99.99,,,-99.99,,2013-08-27 11:03:00,
2013-08-27 04:12:00,66.0,63.0,-100.00,SSW,206,1.0,3.0,90,-99.99,,,-99.99,,2013-08-27 11:12:00,
2013-08-27 05:11:00,65.0,61.0,-100.00,NE,52,1.0,2.0,88,-99.99,,,-99.99,,2013-08-27 12:11:00,
2013-08-27 05:52:00,64.0,59.0,-100.00,NE,50,3.0,4.0,84,-99.99,,,-99.99,,2013-08-27 12:52:00,
2013-08-27 06:11:00,64.0,59.0,-100.00,NE,53,3.0,4.0,83,-99.99,,,-99.99,,2013-08-27 13:11:00,
2013-08-27 06:52:00,64.0,59.0,-100.00,NE,56,3.0,3.0,83,-99.99,,,-99.99,,2013-08-27 13:52:00,
2013-08-27 07:53:00,65.0,59.0,-100.00,NE,40,2.0,4.0,82,-99.99,,,-99.99,,2013-08-27 14:53:00,
2013-08-27 08:22:00,71.0,60.0,-100.00,SSE,152,1.0,3.0,69,-99.99,,,-99.99,,2013-08-27 15:22:00,
2013-08-27 08:35:00,71.0,60.0,-100.00,SSE,152,1.0,3.0,69,-99.99,,,-99.99,,2013-08-27 15:35:00,
2013-08-27 08:58:00,74.0,60.0,-100.00,SW,233,2.0,4.0,62,-99.99,,,-99.99,,2013-08-27 15:58:00,
2013-08-27 09:09:00,74.0,60.0,-100.00,SW,233,2.0,4.0,62,-99.99,,,-99.99,,2013-08-27 16:09:00,
2013-08-27 09:28:00,77.0,59.0,-100.00,SW,235,4.0,7.0,54,-99.99,,,-99.99,,2013-08-27 16:28:00,
2013-08-27 09:55:00,79.0,58.0,-100.00,WSW,243,3.0,6.0,49,-99.99,,,-99.99,,2013-08-27 16:55:00,
2013-08-27 10:22:00,81.0,56.0,-100.00,WSW,237,6.0,10.0,42,-99.99,,,-99.99,,2013-08-27 17:22:00,
2013-08-27 10:52:00,81.0,60.0,-100.00,SW,223,7.0,12.0,49,-99.99,,,-99.99,,2013-08-27 17:52:00,
2013-08-27 11:12:00,80.0,60.0,-100.00,SW,230,8.0,13.0,51,-99.99,,,-99.99,,2013-08-27 18:12:00,
2013-08-27 11:21:00,80.0,59.0,-100.00,SW,226,7.0,10.0,48,-99.99,,,-99.99,,2013-08-27 18:21:00,
2013-08-27 12:22:00,80.0,58.0,-100.00,SSW,210,6.0,10.0,47,-99.99,,,-99.99,,2013-08-27 19:22:00,
2013-08-27 12:52:00,83.0,58.0,-100.00,SSW,213,7.0,11.0,42,-99.99,,,-99.99,,2013-08-27 19:52:00,